[[{"header":{"parameterUnit":"m.s-1","parameterCategory":1,"la1":30.2991,"la2":30.254,"lo1":-89.0895,"lo2":-89.0444,"dy":0.0017,"dx":0.0017,"nx":28,"ny":28,"refTime":"2024-10-21T09:00:00:Z","depth":0,"parameterNumber":2,"parameterNumberName":"U-component_of_WINDS"},"data":[0,0,0,0,0,0,0,0,0,0,0,0,0,0,0,0,0,0,0,0,0,0,0,0,0,0,0,0,0,0,0,0,0,0,0,0,0,0,0,0,0,0,0,0,0,0,0,0,0,0,0,0,0,0,0,0,0,0,-2.4197,-2.4198,0,-2.4289,-2.429,-2.4291,-2.421,-2.4206,-2.4203,-2.42,-2.4296,-2.4301,-2.4307,0,0,0,0,0,0,0,0,0,0,0,0,0,-2.3953,-2.3958,-2.4197,-2.4198,-2.42,-2.4289,-2.429,-2.4292,-2.421,-2.4206,-2.4202,-2.4198,-2.4294,-2.4301,-2.4308,0,0,0,0,0,0,0,0,0,0,0,0,0,-2.4053,-2.3959,-2.4197,-2.417,-2.4168,-2.4289,-2.429,-2.4292,-2.4211,-2.4206,-2.4201,-2.4196,-2.4292,-2.43,-2.4309,-2.4461,0,0,-2.4335,-2.4338,0,0,0,0,0,0,0,0,-2.4048,-2.4062,-2.4173,-2.4172,-2.417,-2.4233,-2.4239,-2.4349,-2.4212,-2.4195,-2.42,-2.4194,-2.4279,-2.4288,-2.4317,-2.4466,-2.447,-2.4335,-2.434,-2.4344,-2.4346,0,0,0,0,0,0,0,-2.4041,-2.4058,-2.4234,-2.4174,-2.4173,-2.4153,-2.4162,-2.426,-2.4264,-2.4196,-2.419,-2.4202,-2.4278,-2.4309,-2.4318,-2.4471,-2.4335,-2.4343,-2.4348,-2.4351,-2.4752,-2.4757,0,0,0,0,0,0,-2.4037,-2.4053,-2.4231,-2.4236,-2.4095,-2.4162,-2.4172,-2.4218,-2.4263,-2.4265,-2.4206,-2.4198,-2.4297,-2.4308,-2.4321,-2.4505,-2.4344,-2.4352,-2.4357,-2.4746,-2.4753,-2.4759,0,0,0,0,0,0,-2.4032,-2.4053,-2.4227,-2.4143,-2.4164,-2.4171,-2.4224,-2.4222,-2.4253,-2.4271,-2.4271,-2.4237,-2.4293,-2.4309,-2.4427,-2.4507,-2.4356,-2.4364,-2.474,-2.4748,-2.4756,-2.4872,0,0,0,0,0,0,-2.4025,-2.4052,-2.411,-2.4145,-2.4168,-2.4331,-2.4229,-2.4228,-2.4268,-2.4258,-2.43,-2.4302,-2.429,-2.4415,-2.4436,-2.4516,-2.437,-2.4732,-2.4743,-2.4753,-2.4861,-2.4883,-2.4902,0,0,0,0,0,-2.4016,-2.4139,-2.4113,-2.4135,-2.4241,-2.4336,-2.435,-2.4333,-2.4275,-2.4333,-2.4344,-2.4301,-2.4494,-2.4428,-2.445,-2.4534,-2.4727,-2.474,-2.4752,-2.4852,-2.4879,-2.4902,0,0,0,0,0,0,-2.4114,-2.4143,-2.4115,-2.4252,-2.4292,-2.4322,-2.4396,-2.4362,-2.442,-2.4409,-2.4386,-2.4396,-2.4521,-2.4539,-2.4464,-2.4685,-2.4601,-2.4619,-2.4669,-2.4695,-2.4715,-2.471,-2.4377,0,0,0,0,0,-2.4151,-2.4226,-2.4247,-2.4366,-2.4388,-2.4389,-2.4429,-2.4413,-2.4454,-2.4471,-2.449,-2.4532,-2.4602,-2.4649,-2.4714,-2.4862,-2.4871,-2.4931,-2.4951,-2.4968,-2.4984,-2.5065,-2.5093,-2.48,-2.4799,-2.4799,0,0,-2.423,-2.4255,-2.4303,-2.4387,-2.4416,-2.4494,-2.4403,-2.449,-2.4548,-2.4484,-2.4597,-2.4613,-2.4658,-2.4792,-2.4851,-2.481,-2.5067,-2.4984,-2.4997,-2.5005,-2.5081,-2.5109,-2.5133,-2.4808,-2.4806,-2.4805,0,0,-2.4413,-2.4438,-2.4541,-2.4572,-2.4617,-2.4616,-2.4641,-2.4676,-2.4684,-2.4797,-2.4751,-2.4819,-2.494,-2.4975,-2.5008,-2.5203,-2.5166,-2.5225,-2.5334,-2.5413,-2.5436,-2.5456,-2.5528,-2.5554,-2.5241,-2.5241,-2.5241,0,-2.4505,-2.4621,-2.4599,-2.4689,-2.4728,-2.4672,-2.4776,-2.4807,-2.4872,-2.49,-2.4852,-2.5003,-2.503,-2.5172,-2.5219,-2.5247,-2.5276,-2.5222,-2.5434,-2.5454,-2.5473,-2.5541,-2.5568,-2.5248,-2.5247,-2.5247,-2.5246,0,-2.4733,-2.4814,-2.4891,-2.4955,-2.5001,-2.5099,-2.5092,-2.5142,-2.5121,-2.5126,-2.5242,-2.5271,-2.5342,-2.5373,-2.5354,-2.5513,-2.5487,-2.5437,-2.5353,-2.5508,-2.5572,-2.5598,-2.5258,-2.5256,-2.5254,-2.5252,0,0,-2.4983,-2.5031,-2.5061,-2.5089,-2.5134,-2.5197,-2.5291,-2.5359,-2.5404,-2.5449,-2.5529,-2.5632,-2.5587,-2.5624,-2.5608,-2.5677,-2.5833,-2.5619,-2.562,-2.566,-2.6012,-2.6051,-2.6082,-2.5807,-2.5811,-2.5815,-2.6009,0,-2.517,-2.5334,-2.5316,-2.5473,-2.5548,-2.5496,-2.5578,-2.5615,-2.5621,-2.5686,-2.5693,-2.5768,-2.57,-2.5723,-2.5789,-2.58,-2.5904,-2.5785,-2.5883,-2.5886,-2.5876,-2.6115,-2.6157,-2.6338,-2.6033,-2.6038,-2.6041,0,-2.541,-2.5464,-2.5629,-2.5662,-2.5693,-2.5768,-2.583,-2.5892,-2.5932,-2.5932,-2.5974,-2.5946,-2.6042,-2.5953,-2.6086,-2.6006,-2.6044,-2.6055,-2.6062,-2.6073,-2.5975,-2.6135,-2.6395,-2.6423,-2.6079,-2.6076,-2.6073,0,-2.5579,-2.5693,-2.5806,-2.5831,-2.5873,-2.5927,-2.5947,-2.5982,-2.6025,-2.6078,-2.6106,-2.617,-2.6206,-2.6257,-2.6247,-2.6183,-2.6383,-2.6293,-2.6387,-2.6388,-2.6434,-2.6432,-2.6707,-2.6454,-2.6454,-2.6453,-2.6453,0,-2.5792,-2.5895,-2.5883,-2.5953,-2.6067,-2.6045,-2.6159,-2.6172,-2.6204,-2.6276,-2.6233,-2.6302,-2.6284,-2.6352,-2.6344,-2.6456,-2.6472,-2.6476,-2.6473,-2.6481,-2.6482,-2.6509,-2.6497,-2.646,-2.6459,-2.6457,-2.6456,0,-2.6001,-2.5997,-2.6117,-2.6146,-2.6156,-2.6239,-2.6264,-2.633,-2.6332,-2.6424,-2.6445,-2.6449,-2.6527,-2.6521,-2.6609,-2.6604,-2.6743,-2.6724,-2.673,-2.6727,-2.6822,-2.6814,-2.7126,-2.7167,-2.6885,-2.6888,-2.689,0,-2.6139,-2.6217,-2.6254,-2.6299,-2.6323,-2.6396,-2.6439,-2.642,-2.6466,-2.6518,-2.6579,-2.6653,-2.6711,-2.6838,-2.685,-2.6917,-2.6901,-2.7005,-2.6911,-2.6917,-2.6906,-2.6903,-2.6911,-2.7025,-2.7029,-2.7031,-2.7033,0,-2.6384,-2.6378,-2.6441,-2.6505,-2.6557,-2.6606,-2.665,-2.669,-2.6675,-2.673,-2.6809,-2.6854,-2.6943,-2.7018,-2.7082,-2.7102,-2.7067,-2.7062,-2.7088,-2.7099,-2.71,-2.7104,-2.6784,-2.7056,-2.7054,-2.7052,-2.7051,-2.705,-2.6564,-2.6631,-2.6668,-2.6741,-2.6772,-2.6814,-2.6878,-2.6888,-2.6953,-2.7025,-2.7009,-2.7098,-2.7136,-2.7218,-2.7245,-2.7315,-2.7278,-2.7315,-2.7324,-2.7335,-2.7347,-2.7086,-2.7326,-2.7326,-2.7325,-2.7325,-2.7324,0,-2.681,-2.683,-2.6897,-2.696,-2.7017,-2.6976,-2.7023,-2.7074,-2.7153,-2.7191,-2.7249,-2.734,-2.7412,-2.7428,-2.7497,-2.755,-2.7536,-2.757,-2.7567,-2.7573,-2.7375,-2.7347,-2.758,-2.758,-2.758,-2.758,-2.758,-2.758,-2.6944,-2.7057,-2.7055,-2.7183,-2.7202,-2.7289,-2.732,-2.7359,-2.739,-2.7493,-2.7553,-2.7562,-2.7592,-2.7663,-2.7727,-2.773,-2.7759,-2.78,-2.7796,-2.7612,-2.7587,-2.7562,-2.7536,-2.7805,-2.7805,-2.7989,-2.799,-2.7992]},{"header":{"parameterUnit":"m.s-1","parameterCategory":1,"la1":30.2991,"la2":30.254,"lo1":-89.0895,"lo2":-89.0444,"dy":0.0017,"dx":0.0017,"nx":28,"ny":28,"refTime":"2024-10-21T09:00:00:Z","depth":0,"parameterNumber":3,"parameterNumberName":"V-component_of_WINDS"},"data":[0,0,0,0,0,0,0,0,0,0,0,0,0,0,0,0,0,0,0,0,0,0,0,0,0,0,0,0,0,0,0,0,0,0,0,0,0,0,0,0,0,0,0,0,0,0,0,0,0,0,0,0,0,0,0,0,0,0,-3.3689,-3.369,0,-3.3733,-3.3734,-3.3734,-3.3672,-3.367,-3.3668,-3.3666,-3.3707,-3.371,-3.3713,0,0,0,0,0,0,0,0,0,0,0,0,0,-3.3547,-3.355,-3.3689,-3.369,-3.369,-3.3733,-3.3734,-3.3734,-3.3673,-3.367,-3.3667,-3.3665,-3.3706,-3.371,-3.3714,0,0,0,0,0,0,0,0,0,0,0,0,0,-3.3602,-3.3551,-3.3689,-3.3665,-3.3663,-3.3733,-3.3734,-3.3735,-3.3673,-3.367,-3.3667,-3.3663,-3.3705,-3.3709,-3.3714,-3.3809,0,0,-3.3728,-3.3731,0,0,0,0,0,0,0,0,-3.3599,-3.3607,-3.3668,-3.3667,-3.3665,-3.3694,-3.3699,-3.3759,-3.3674,-3.3669,-3.3666,-3.3662,-3.3705,-3.371,-3.3725,-3.3811,-3.3813,-3.3729,-3.3732,-3.3734,-3.3735,0,0,0,0,0,0,0,-3.3595,-3.3605,-3.3706,-3.3669,-3.3667,-3.365,-3.3654,-3.371,-3.3705,-3.3669,-3.3665,-3.3671,-3.3704,-3.3721,-3.3725,-3.3813,-3.3729,-3.3733,-3.3736,-3.3738,-3.3977,-3.3981,0,0,0,0,0,0,-3.3595,-3.3602,-3.3705,-3.3708,-3.3623,-3.3655,-3.366,-3.3688,-3.3704,-3.3704,-3.3674,-3.3668,-3.3714,-3.372,-3.3727,-3.3838,-3.3734,-3.3738,-3.3741,-3.3974,-3.3978,-3.3982,0,0,0,0,0,0,-3.3592,-3.3604,-3.3703,-3.3654,-3.3665,-3.3661,-3.3693,-3.369,-3.3707,-3.3708,-3.3706,-3.3693,-3.3712,-3.372,-3.3789,-3.3838,-3.374,-3.3745,-3.397,-3.3975,-3.398,-3.4062,0,0,0,0,0,0,-3.3588,-3.3604,-3.3641,-3.3655,-3.3668,-3.3766,-3.3696,-3.3694,-3.3716,-3.3709,-3.3725,-3.3724,-3.371,-3.3782,-3.3794,-3.3843,-3.3748,-3.3965,-3.3972,-3.3978,-3.4055,-3.4069,-3.4082,0,0,0,0,0,-3.3583,-3.3662,-3.3643,-3.3656,-3.3715,-3.3769,-3.3777,-3.376,-3.372,-3.3757,-3.3757,-3.3724,-3.3831,-3.379,-3.3802,-3.3854,-3.3962,-3.397,-3.3978,-3.4048,-3.4066,-3.4081,0,0,0,0,0,0,-3.3652,-3.3663,-3.3643,-3.3729,-3.3749,-3.3759,-3.3805,-3.3779,-3.381,-3.3802,-3.3778,-3.3782,-3.3856,-3.3862,-3.3815,-3.3946,-3.389,-3.3901,-3.3939,-3.3956,-3.397,-3.3966,-3.3752,0,0,0,0,0,-3.3678,-3.3723,-3.3729,-3.3804,-3.3816,-3.3809,-3.3832,-3.3817,-3.3836,-3.3844,-3.3849,-3.3868,-3.3906,-3.3931,-3.3966,-3.4055,-3.4057,-3.4097,-3.411,-3.4121,-3.4131,-3.4176,-3.4194,-3.4008,-3.4008,-3.4008,0,0,-3.373,-3.3742,-3.3772,-3.3818,-3.3832,-3.3878,-3.3816,-3.3867,-3.39,-3.3851,-3.3917,-3.3921,-3.3941,-3.402,-3.4055,-3.4027,-3.4182,-3.4131,-3.414,-3.4144,-3.4186,-3.4204,-3.422,-3.4014,-3.4013,-3.4012,0,0,-3.385,-3.3864,-3.3927,-3.3942,-3.3964,-3.3959,-3.3974,-3.3989,-3.399,-3.4055,-3.4019,-3.4058,-3.4124,-3.4139,-3.4155,-3.4279,-3.4249,-3.4291,-3.4362,-3.4407,-3.4421,-3.4434,-3.4477,-3.4493,-3.4301,-3.4301,-3.4301,0,-3.3912,-3.3981,-3.3962,-3.4016,-3.4037,-3.3996,-3.4059,-3.4074,-3.4106,-3.4121,-3.409,-3.4171,-3.4181,-3.4263,-3.4293,-3.4308,-3.4323,-3.4289,-3.4421,-3.4433,-3.4445,-3.4486,-3.4502,-3.4306,-3.4305,-3.4305,-3.4304,0,-3.4055,-3.4104,-3.4152,-3.4185,-3.4211,-3.4269,-3.4258,-3.4287,-3.427,-3.4267,-3.4333,-3.4344,-3.438,-3.4398,-3.4382,-3.4477,-3.4459,-3.4425,-3.4368,-3.4468,-3.4506,-3.4521,-3.4313,-3.4311,-3.4309,-3.4308,0,0,-3.422,-3.4242,-3.426,-3.4274,-3.4295,-3.4331,-3.4386,-3.4422,-3.4447,-3.447,-3.4515,-3.4571,-3.454,-3.4558,-3.4543,-3.4582,-3.4678,-3.4543,-3.4543,-3.4567,-3.4782,-3.4807,-3.4826,-3.4659,-3.4662,-3.4664,-3.478,0,-3.4338,-3.4435,-3.442,-3.4513,-3.4556,-3.4518,-3.4566,-3.4583,-3.4582,-3.4617,-3.4615,-3.4656,-3.4611,-3.4622,-3.466,-3.4659,-3.4721,-3.465,-3.4699,-3.4701,-3.4695,-3.4846,-3.4873,-3.4982,-3.4795,-3.4798,-3.4799,0,-3.4489,-3.4518,-3.4617,-3.463,-3.4647,-3.4691,-3.4722,-3.4757,-3.4775,-3.4772,-3.4792,-3.4769,-3.4823,-3.4766,-3.4839,-3.4791,-3.481,-3.4812,-3.4816,-3.4819,-3.4756,-3.4852,-3.5017,-3.5033,-3.4823,-3.4821,-3.4819,0,-3.4597,-3.4662,-3.4728,-3.4742,-3.4759,-3.4791,-3.4799,-3.4814,-3.4836,-3.4863,-3.4877,-3.491,-3.4927,-3.4952,-3.4938,-3.4898,-3.5013,-3.4955,-3.501,-3.501,-3.5035,-3.5034,-3.5204,-3.5049,-3.5049,-3.5049,-3.5048,0,-3.473,-3.4792,-3.4777,-3.4818,-3.4885,-3.4866,-3.4932,-3.4936,-3.495,-3.4989,-3.4957,-3.4995,-3.4974,-3.501,-3.4999,-3.506,-3.5068,-3.5066,-3.5062,-3.5068,-3.5068,-3.508,-3.5071,-3.5053,-3.5052,-3.5051,-3.505,0,-3.4863,-3.4856,-3.4926,-3.4937,-3.4941,-3.499,-3.4998,-3.5035,-3.5032,-3.5083,-3.5093,-3.5087,-3.5127,-3.5116,-3.5159,-3.5152,-3.5229,-3.5216,-3.5223,-3.5219,-3.5275,-3.5269,-3.5457,-3.548,-3.5312,-3.5313,-3.5315,0,-3.4948,-3.4994,-3.501,-3.5035,-3.5046,-3.5087,-3.511,-3.5092,-3.5117,-3.5141,-3.5175,-3.5213,-3.5242,-3.5307,-3.5306,-3.5339,-3.5325,-3.5389,-3.533,-3.5335,-3.5325,-3.5322,-3.5326,-3.5401,-3.5403,-3.5404,-3.5405,0,-3.5099,-3.5093,-3.5128,-3.5162,-3.519,-3.5216,-3.5238,-3.5259,-3.5243,-3.5273,-3.5314,-3.5337,-3.5381,-3.5418,-3.5448,-3.5454,-3.5427,-3.5424,-3.5438,-3.5445,-3.5447,-3.5445,-3.5254,-3.542,-3.5418,-3.5417,-3.5417,-3.5416,-3.521,-3.5249,-3.5266,-3.5305,-3.532,-3.5342,-3.5377,-3.5378,-3.5413,-3.5448,-3.5435,-3.5482,-3.5498,-3.5535,-3.5546,-3.5581,-3.5556,-3.5577,-3.5582,-3.5588,-3.5594,-3.5442,-3.5586,-3.5586,-3.5586,-3.5585,-3.5585,0,-3.5358,-3.5367,-3.5404,-3.5436,-3.5467,-3.544,-3.5463,-3.549,-3.5532,-3.5549,-3.5579,-3.5625,-3.5661,-3.5663,-3.5696,-3.5723,-3.5712,-3.5733,-3.573,-3.5732,-3.5615,-3.5599,-3.5742,-3.5742,-3.5742,-3.5742,-3.5741,-3.5741,-3.5439,-3.5503,-3.5499,-3.557,-3.5578,-3.5625,-3.564,-3.5659,-3.5672,-3.5726,-3.5756,-3.5757,-3.5768,-3.5801,-3.5832,-3.5831,-3.5845,-3.587,-3.5865,-3.5756,-3.574,-3.5725,-3.571,-3.5874,-3.5874,-3.5978,-3.5979,-3.598]}]]